Simultaneous Nadir Overpasses (SNOs) Predictions

Prediction of SNOs between METOP-A and TERRA Satellite Orbit:

Table of predicted SNOs for the next 14.0 days since TLE Epoch: 10/24/2020
Index Date (METOP-A) Time (METOP-A) Lat,Lon (METOP-A) SZA (METOP-A ) Date (TERRA) Time (TERRA) Lat,Lon (TERRA) SZA (TERRA ) Distance(km) Time Diff (sec)
1 10/25/2020 15:50:31 81.38, -9.15 97.05 10/25/2020 15:50:37 81.37, -9.24 97.04 1.78 6
2 10/25/2020 16:41:11 -81.37, 158.41 82.92 10/25/2020 16:40:04 -81.37, 158.31 82.97 1.78 67
3 10/28/2020 10:34:13 -81.38,-110.10 82.02 10/28/2020 10:35:24 -81.39,-110.05 81.97 1.63 71
4 10/28/2020 11:24:54 81.38, 57.22 98.00 10/28/2020 11:24:51 81.37, 57.28 98.00 1.18 3
5 10/31/2020 06:08:35 -81.38, -43.73 81.10 10/31/2020 06:09:38 -81.37, -43.91 81.10 3.04 63
6 10/31/2020 06:59:15 81.37, 123.96 98.95 10/31/2020 06:59:04 81.38, 123.77 98.93 3.36 11
7 11/03/2020 01:42:58 -81.38, 22.62 80.22 11/03/2020 01:43:52 -81.38, 22.57 80.20 0.90 54
8 11/03/2020 02:33:38 81.37,-169.70 99.83 11/03/2020 02:33:18 81.38,-169.78 99.81 1.76 20
9 11/05/2020 21:17:21 -81.38, 88.96 79.38 11/05/2020 21:18:06 -81.38, 89.01 79.35 0.84 45
